WB6DHP Weather Reports


Display with metric or nautical units.
time (UTC)temp
F
wind
direction
speed
MPH
gust
MPH
rain 1hr
in
rain 24hr
in
rain mn
in
humidity
%
barometer
mb
20180423205011 85 0 2.0 6.0 0.00 0.00 0.00 35 1013.5
20180423204010 85 340 3.0 8.0 0.00 0.00 0.00 33 1013.6
20180423203010 84 343 2.0 6.0 0.00 0.00 0.00 34 1013.7
20180423202008 83 286 5.0 8.0 0.00 0.00 0.00 34 1013.8
20180423201008 83 350 1.0 3.0 0.00 0.00 0.00 35 1013.9
20180423200008 82 42 3.0 7.0 0.00 0.00 0.00 36 1014.1
20180423195008 81 71 2.0 5.0 0.00 0.00 0.00 37 1014.2
20180423194009 80 120 1.0 8.0 0.00 0.00 0.00 38 1014.3
20180423193008 79 71 1.0 3.0 0.00 0.00 0.00 39 1014.4
20180423192009 79 92 1.0 3.0 0.00 0.00 0.00 39 1014.6
20180423191009 78 62 1.0 3.0 0.00 0.00 0.00 40 1014.7
20180423190008 78 73 3.0 6.0 0.00 0.00 0.00 39 1014.8
20180423185010 77 27 2.0 5.0 0.00 0.00 0.00 43 1014.9
20180423184010 75 243 2.0 5.0 0.00 0.00 0.00 45 1014.9
20180423183008 75 98 2.0 3.0 0.00 0.00 0.00 47 1015.1
20180423182009 74 98 2.0 3.0 0.00 0.00 0.00 49 1015.2
20180423181010 74 327 2.0 5.0 0.00 0.00 0.00 49 1015.2
20180423180010 73 38 2.0 6.0 0.00 0.00 0.00 51 1015.3
20180423175008 72 59 2.0 5.0 0.00 0.00 0.00 53 1015.3
20180423174008 72 59 1.0 3.0 0.00 0.00 0.00 54 1015.3
20180423173008 71 5 3.0 6.0 0.00 0.00 0.00 55 1015.2
20180423172009 70 60 1.0 3.0 0.00 0.00 0.00 59 1015.3
20180423171008 69 346 2.0 5.0 0.00 0.00 0.00 60 1015.3
20180423170007 68 355 1.0 5.0 0.00 0.00 0.00 62 1015.3
20180423165008 68 80 2.0 3.0 0.00 0.00 0.00 62 1015.1
20180423164008 67 87 1.0 3.0 0.00 0.00 0.00 64 1015.1
20180423163010 66 104 1.0 3.0 0.00 0.00 0.00 66 1015.0
20180423162009 65 34 0.0 3.0 0.00 0.00 0.00 69 1014.9
20180423161009 64 61 2.0 3.0 0.00 0.00 0.00 72 1015.0
20180423160007 63 17 0.0 3.0 0.00 0.00 0.00 73 1015.0
20180423155008 62 12 2.0 3.0 0.00 0.00 0.00 75 1015.0
20180423154009 61 17 1.0 3.0 0.00 0.00 0.00 78 1015.0
20180423153008 61 355 2.0 3.0 0.00 0.00 0.00 79 1014.9
20180423152008 59 5 1.0 3.0 0.00 0.00 0.00 81 1014.9
20180423151008 57 5 0.0 0.0 0.00 0.00 0.00 83 1014.9
20180423150009 56 5 0.0 0.0 0.00 0.00 0.00 85 1014.8
20180423145009 55 5 0.0 0.0 0.00 0.00 0.00 84 1014.8
20180423144008 53 5 0.0 0.0 0.00 0.00 0.00 85 1014.8
20180423143007 52 5 0.0 0.0 0.00 0.00 0.00 85 1014.8
20180423142008 51 5 0.0 0.0 0.00 0.00 0.00 85 1014.6
20180423141008 51 5 0.0 0.0 0.00 0.00 0.00 85 1014.6
20180423140007 50 5 0.0 0.0 0.00 0.00 0.00 85 1014.4
20180423135009 50 5 0.0 0.0 0.00 0.00 0.00 85 1014.4
20180423134008 50 5 0.0 0.0 0.00 0.00 0.00 85 1014.4
20180423133009 50 5 0.0 0.0 0.00 0.00 0.00 85 1014.2
20180423132009 50 5 0.0 0.0 0.00 0.00 0.00 84 1014.1
20180423131007 50 5 0.0 0.0 0.00 0.00 0.00 85 1014.0
20180423130009 50 5 0.0 0.0 0.00 0.00 0.00 85 1013.9
20180423125009 50 5 0.0 0.0 0.00 0.00 0.00 84 1013.7
20180423124008 50 5 0.0 0.0 0.00 0.00 0.00 84 1013.7
20180423123007 50 5 0.0 0.0 0.00 0.00 0.00 84 1013.6
20180423122008 50 5 0.0 0.0 0.00 0.00 0.00 83 1013.6
20180423121008 50 5 0.0 0.0 0.00 0.00 0.00 83 1013.4
20180423120006 50 5 0.0 0.0 0.00 0.00 0.00 82 1013.4
20180423115007 50 5 0.0 0.0 0.00 0.00 0.00 82 1013.3
20180423114010 51 5 0.0 0.0 0.00 0.00 0.00 82 1013.2
20180423113010 51 5 0.0 0.0 0.00 0.00 0.00 81 1013.1
20180423112009 51 5 0.0 0.0 0.00 0.00 0.00 82 1013.1
20180423111009 51 5 0.0 0.0 0.00 0.00 0.00 82 1013.1
20180423110008 51 5 0.0 0.0 0.00 0.00 0.00 82 1013.0
20180423105007 52 5 0.0 0.0 0.00 0.00 0.00 82 1013.0
20180423104007 52 5 0.0 0.0 0.00 0.00 0.00 82 1013.1
20180423103010 52 5 0.0 0.0 0.00 0.00 0.00 81 1013.0
20180423102007 52 5 0.0 0.0 0.00 0.00 0.00 81 1013.0
20180423101007 52 5 0.0 0.0 0.00 0.00 0.00 82 1012.9
20180423100007 53 5 0.0 0.0 0.00 0.00 0.00 81 1012.9
20180423095009 53 5 0.0 0.0 0.00 0.00 0.00 82 1012.9
20180423094009 53 5 0.0 0.0 0.00 0.00 0.00 81 1013.0
20180423093007 54 5 0.0 0.0 0.00 0.00 0.00 81 1013.0
20180423092008 54 5 0.0 0.0 0.00 0.00 0.00 81 1013.1
20180423091008 54 5 0.0 0.0 0.00 0.00 0.00 81 1013.2
20180423090007 55 5 0.0 0.0 0.00 0.00 0.00 81 1013.3
20180423085010 55 5 0.0 0.0 0.00 0.00 0.00 80 1013.4
20180423084008 55 5 0.0 0.0 0.00 0.00 0.00 80 1013.4
20180423083008 55 5 0.0 0.0 0.00 0.00 0.00 80 1013.3
20180423082008 56 5 0.0 0.0 0.00 0.00 0.00 79 1013.4
20180423081007 56 5 0.0 0.0 0.00 0.00 0.00 79 1013.3
20180423080008 56 5 0.0 0.0 0.00 0.00 0.00 79 1013.4
20180423075007 57 5 0.0 0.0 0.00 0.00 0.00 79 1013.4
20180423074007 57 5 0.0 0.0 0.00 0.00 0.00 79 1013.3
20180423073008 57 5 0.0 0.0 0.00 0.00 0.00 78 1013.3
20180423072009 57 5 0.0 0.0 0.00 0.00 0.00 78 1013.3
20180423071007 58 5 0.0 0.0 0.00 0.00 0.00 76 1013.3
20180423070008 58 5 0.0 0.0 0.00 0.00 0.00 76 1013.2
20180423065008 59 5 0.0 0.0 0.00 0.00 0.00 75 1013.3
20180423064009 59 5 0.0 0.0 0.00 0.00 0.00 75 1013.3
20180423063008 59 5 0.0 0.0 0.00 0.00 0.00 75 1013.2
20180423062009 60 5 0.0 0.0 0.00 0.00 0.00 74 1013.3
20180423061007 60 5 0.0 0.0 0.00 0.00 0.00 73 1013.2
20180423060008 61 5 0.0 0.0 0.00 0.00 0.00 73 1013.3
20180423055008 61 5 0.0 0.0 0.00 0.00 0.00 72 1013.2
20180423054008 62 5 0.0 0.0 0.00 0.00 0.00 71 1013.2
20180423053009 62 5 0.0 0.0 0.00 0.00 0.00 72 1013.2
20180423052010 62 5 0.0 0.0 0.00 0.00 0.00 71 1013.3
20180423051008 63 5 0.0 0.0 0.00 0.00 0.00 71 1013.3
20180423050007 63 5 0.0 0.0 0.00 0.00 0.00 70 1013.3
20180423045008 63 5 0.0 0.0 0.00 0.00 0.00 69 1013.2
20180423044009 64 5 0.0 0.0 0.00 0.00 0.00 68 1013.1
20180423043008 64 5 0.0 0.0 0.00 0.00 0.00 66 1012.9
20180423042008 65 5 0.0 0.0 0.00 0.00 0.00 63 1012.8
20180423041009 66 5 0.0 0.0 0.00 0.00 0.00 61 1012.8
20180423040007 67 5 0.0 0.0 0.00 0.00 0.00 59 1012.6
20180423035008 68 5 0.0 0.0 0.00 0.00 0.00 58 1012.5
20180423034008 69 5 0.0 0.0 0.00 0.00 0.00 56 1012.3
20180423033007 69 5 0.0 0.0 0.00 0.00 0.00 54 1012.2
20180423032010 70 5 0.0 0.0 0.00 0.00 0.00 52 1012.1
20180423031007 71 5 0.0 0.0 0.00 0.00 0.00 49 1011.9
20180423030007 72 5 0.0 0.0 0.00 0.00 0.00 46 1011.8
20180423025010 73 5 0.0 2.0 0.00 0.00 0.00 44 1011.7
20180423024007 73 5 0.0 3.0 0.00 0.00 0.00 42 1011.7
20180423023008 74 0 2.0 6.0 0.00 0.00 0.00 40 1011.7
20180423022010 75 26 1.0 3.0 0.00 0.00 0.00 40 1011.5
20180423021008 76 57 1.0 3.0 0.00 0.00 0.00 40 1011.5
20180423020007 77 35 2.0 7.0 0.00 0.00 0.00 40 1011.5
20180423015008 78 5 1.0 6.0 0.00 0.00 0.00 38 1011.5
20180423014007 79 5 3.0 7.0 0.00 0.00 0.00 37 1011.5
20180423013008 79 5 2.0 5.0 0.00 0.00 0.00 37 1011.6
20180423012007 80 306 3.0 9.0 0.00 0.00 0.00 36 1011.5
20180423011009 80 355 3.0 10.0 0.00 0.00 0.00 37 1011.4
20180423010009 81 61 3.0 10.0 0.00 0.00 0.00 37 1011.5
20180423005008 82 5 3.0 8.0 0.00 0.00 0.00 35 1011.6
20180423004007 82 24 2.0 10.0 0.00 0.00 0.00 36 1011.6
20180423003009 83 290 4.0 9.0 0.00 0.00 0.00 35 1011.6
20180423002008 84 47 3.0 9.0 0.00 0.00 0.00 35 1011.6
20180423001007 84 29 3.0 10.0 0.00 0.00 0.00 35 1011.6
20180423000008 84 348 6.0 12.0 0.00 0.00 0.00 34 1011.6
20180422235007 85 313 4.0 9.0 0.00 0.00 0.00 34 1011.5
20180422234008 85 25 4.0 12.0 0.00 0.00 0.00 34 1011.6
20180422233007 84 355 2.0 10.0 0.00 0.00 0.00 36 1011.6
20180422232007 84 51 3.0 9.0 0.00 0.00 0.00 34 1011.7
20180422231009 85 38 3.0 9.0 0.00 0.00 0.00 36 1011.8
20180422230006 85 39 4.0 9.0 0.00 0.00 0.00 34 1011.9
20180422225007 85 222 3.0 12.0 0.00 0.00 0.00 34 1012.0
20180422224006 83 335 2.0 10.0 0.00 0.00 0.00 36 1012.0
20180422223008 83 40 5.0 10.0 0.00 0.00 0.00 36 1012.3
20180422222007 84 340 3.0 10.0 0.00 0.00 0.00 34 1012.3
20180422221007 83 350 2.0 13.0 0.00 0.00 0.00 35 1012.4
20180422220008 83 19 5.0 12.0 0.00 0.00 0.00 35 1012.6
20180422215009 83 14 4.0 13.0 0.00 0.00 0.00 34 1012.6
20180422214007 84 16 4.0 10.0 0.00 0.00 0.00 34 1012.6
20180422213007 84 44 4.0 10.0 0.00 0.00 0.00 30 1012.7
20180422212007 83 0 3.0 9.0 0.00 0.00 0.00 32 1012.7
20180422211008 83 17 3.0 10.0 0.00 0.00 0.00 32 1012.7
20180422210007 84 355 3.0 10.0 0.00 0.00 0.00 30 1012.8